Regional Weather Roundup
Issued by NWS

Home | Current Version | Previous Version | Graphics & Text | Print | Product List | Glossary Off
Versions: 1 2 3 4 5 6 7 8 9 10 11 12 13 14 15 16 17 18 19 20 21 22 23 24 25 26 27 28 29 30 31 32 33 34 35 36 37 38 39 40 41 42 43 44 45 46 47 48 49 50

000
ASUS43 KMKX 161710
RWRWI

WISCONSIN REGIONAL WEATHER ROUNDUP
NATIONAL WEATHER SERVICE MILWAUKEE/SULLIVAN WI
1100 AM CST TUE JAN 16 2018

NOTE: "FAIR" INDICATES FEW OR NO CLOUDS BELOW 12,000 FEET WITH NO
SIGNIFICANT WEATHER AND/OR OBSTRUCTIONS TO VISIBILITY.

WIZ001-002-006>008-014>016-023>028-161800-
NORTHWEST WISCONSIN

CITY           SKY/WX    TMP DP  RH WIND       PRES   REMARKS
SUPERIOR ARPT  FAIR       5  -3  68 W7        30.66S WCI  -7
ASHLAND        FAIR      11   6  81 W8        30.61S WCI  -1
HAYWARD        FAIR      11   4  73 VRB3      30.58S
SIREN          FLURRIES   4  -1  77 NW3       30.65S
CUMBERLAND     LGT SNOW   7   3  85 W7        30.59S WCI  -5
RICE LAKE      FLURRIES  10   5  80 CALM      30.62R
CHETEK         FAIR      10   4  75 NW5       30.60R WCI   2
LADYSMITH      FAIR      12   8  82 CALM      30.56F
EAU CLAIRE     FAIR      10   6  84 W5        30.60F WCI   2
MENOMONIE      LGT SNOW  11   7  84 NW8       30.63S WCI  -1
NEW RICHMOND   FLURRIES   4   0  83 NW9       30.65S WCI -10
OSCEOLA        CLOUDY     3  -1  83 W6        30.70S WCI  -8
$$

WIZ003>005-009-010-017-018-161800-
NORTH CENTRAL WISCONSIN

CITY           SKY/WX    TMP DP  RH WIND       PRES   REMARKS
MANITOWISH WTR CLOUDY    16  12  82 N6        30.48S WCI   8
ARBOR VITAE    CLOUDY    17  15  92 N9        30.47S WCI   5
WOODRUFF       CLOUDY    17  15  92 N9        30.47S WCI   5
RHINELANDER    PTSUNNY   18  11  74 N7        30.47S WCI   9
EAGLE RIVER    FAIR      17   9  71 N9        30.46S WCI   5
LAND O LAKES   LGT SNOW  16  11  80 N7        30.48S WCI   7
PHILLIPS       PTSUNNY   17  13  86 N3        30.50S
TOMAHAWK       FAIR      18  11  73 N9G17     30.49F WCI   7
MEDFORD        FAIR      15  11  83 NW7       30.49F WCI   5
MERRILL        FAIR      19  12  76 N8        30.50F WCI   8
$$

WIZ029-030-035-036-043>047-161800-
CENTRAL WISCONSIN

CITY           SKY/WX    TMP DP  RH WIND       PRES   REMARKS
WAUSAU         FAIR      17  10  74 N9        30.49S WCI   6
MOSINEE        MOSUNNY   18  12  79 N8        30.51S WCI   7
MARSHFIELD     FAIR      18  11  74 N8        30.50F WCI   8
STEVENS POINT  FAIR      17  12  79 N12       30.50F WCI   4
WAUPACA        FAIR      22  11  63 NW6       30.51F WCI  14
WAUTOMA        FAIR      23  12  62 CALM      30.53S
WISC RAPIDS    FAIR      18  10  71 N8        30.53S WCI   8
CAMP DOUGLAS   MOSUNNY   14   9  79 NW10      30.55S WCI   1
$$

WIZ011>013-019>022-031-037>040-048>050-161800-
NORTHEAST WISCONSIN

CITY           SKY/WX    TMP DP  RH WIND       PRES   REMARKS
ANTIGO         FAIR      14  12  91 N9        30.47S WCI   2
SHAWANO        FAIR      21  12  70 N3        30.50F
OCONTO         FAIR      17  10  75 N3        30.50F
STURGEON BAY   FAIR      15   9  76 N9        30.49F WCI   3
GREEN BAY      FAIR      19   9  65 NW7       30.50F WCI  10
MANITOWOC      FAIR      19   9  65 NW15      30.48S WCI   5
APPLETON       MOSUNNY   16   7  67 N8        30.48R WCI   5
CLINTONVILLE   FAIR      19  10  68 N5        30.51S WCI  13
OSHKOSH        FAIR      16   9  74 N10       30.50S WCI   4
$$

WIZ032>034-041-042-053>061-161800-
SOUTHWEST WISCONSIN

CITY           SKY/WX    TMP DP  RH WIND       PRES   REMARKS
LA CROSSE      CLOUDY     9   3  77 NW13      30.63F WCI  -7
SPARTA         FLURRIES  12   8  85 W7        30.59F WCI   1
VIROQUA        CLOUDY    10   7  90 NW8       30.54F WCI  -3
BOSCOBEL       CLOUDY    15   7  70 W5        30.61R WCI   8
PRAIRIE DU CHI FAIR      12   3  67 NW10      30.62S WCI  -1
PLATTEVILLE    FAIR      13  10  84 NW3       30.55S
$$

WIZ056-057-062-063-064-067-068-161800-
SOUTH CENTRAL WISCONSIN

CITY           SKY/WX    TMP DP  RH WIND       PRES   REMARKS
REEDSBURG      PTSUNNY   14   8  77 W5        30.54S WCI   7
BARABOO/DELLS  FAIR      15   9  76 NW8       30.53S WCI   5
LONE ROCK      FAIR      13   8  81 W7        30.58S WCI   3
MINERAL POINT  FLURRIES  18  12  79 N9        30.52F WCI   6
MADISON        FAIR      16   9  74 N12       30.52S WCI   3
MIDDLETON      FAIR      19  11  72 NW6       30.53S WCI  10
WATERTOWN      FAIR      16  10  74 NW10      30.49S WCI   4
MONROE         FAIR      18  10  73 NW6       30.50F WCI   9
JANESVILLE     MOSUNNY   18  10  73 NW14G21   30.50R WCI   4
$$

WIZ051-052-058>065-066-070>072-161800-
SOUTHEAST WISCONSIN

CITY           SKY/WX    TMP DP  RH WIND       PRES   REMARKS
MILWAUKEE      PTSUNNY   21  11  65 N15       30.46R WCI   8
WAUKESHA       MOSUNNY   18   7  62 NW12      30.47R WCI   5
MILWAUKEE/TIMM CLOUDY    19   7  58 N10G17    30.47R WCI   8
RACINE         PTSUNNY   20  10  65 NW10      30.46S WCI   9
BURLINGTON     FAIR      20  10  65 NW10      30.47R WCI   8
KENOSHA        PTSUNNY   21  10  62 NW15      30.45R WCI   8
FOND DU LAC    FAIR      16   8  71 NW7       30.50S WCI   6
SHEBOYGAN      FAIR      19   8  62 N10       30.47R WCI   7
WEST BEND      PTSUNNY   19   9  63 N7        30.46S WCI  10
JUNEAU         FAIR      15   9  74 N6        30.50S WCI   7
$$

LSZ147-162-161800-
LAKE SUPERIOR

STATION/POSITION TIME  TEMP    WIND        PRES    WAVE
                       AIR SEA DIR/SP/G            HT/PER
                 (UTC) (F)     (DEG/KT/KT) (MB)    (FT/S)
DEVILS ISLAND    1700   15     250/ 15/ 19 1037.1F
SAXON HARBOR     1630   18     290/  8/ 13 1035.2R
$$

LMZ867-665-643>646-161800-
LAKE MICHIGAN

STATION/POSITION TIME  TEMP    WIND        PRES    WAVE
                       AIR SEA DIR/SP/G            HT/PER
                 (UTC) (F)     (DEG/KT/KT) (MB)    (FT/S)
NORTHPORT PIER   1640   14      CALM  /  1 1032.5S
KEWAUNEE LAKESHO 1642   17     330/ 10/ 14 1031.3S
SHEBOYGAN LAKESH 1700   19     340/ 13/ 15 1032.8R
PORT WASHINGTON  1640   19     330/  6/ 12 1032.5S
MILWAUKEE LAKESH 1650   20     330/ 13/ 16   N/A
KENOSHA   LAKESH 1700   20     330/ 15/ 18 1031.2
$$

TC  - TEMPERATURE IN CELSIUS
VSB - VISIBILITY IN STATUTE MILES
WCI - WIND CHILL INDEX
HX  - HEAT INDEX





USA.gov is the U.S. government's official web portal to all federal, state and local government web resources and services.